Tracking 30306 objects as of 24-Apr-2025
HD Live streaming from Space Station
objects crossing your sky now

THORAD DELTA 1 DEB

Track THORAD DELTA 1 DEB now!
10-day predictions


NORAD ID: 42592
Int'l Code: 1974-089CW
Perigee: 1,444.9 km
Apogee: 1,496.2 km
Inclination: 101.8 °
Period: 115.2 minutes
Semi major axis: 7841 km
RCS: Unknown
Launch date: November 15, 1974
Source: United States (US)
Launch site: AIR FORCE WESTERN TEST RANGE (AFWTR)

Note: This is SATELLITE DEBRIS
Your satellite tracking list
Your tracking list is empty




NASA's NSSDC Master Catalog

Two Line Element Set (TLE):
1 42592U 74089CW  25112.82470908  .00000037  00000-0  53927-3 0  9998
2 42592 101.8127  62.4925 0032691 325.2309  34.6625 12.50266214480206
Source of the keplerian elements: AFSPC